User: anonymous   Login
Location: Aragnouet
(42.7874°N, 0.2165°E)
Time: 11:49:55
(UTC+00:00)
Language:

Cosmos 220 Rocket - Orbit

View from above orbital plane
View from above orbital plane
View from above satellite
View from above satellite

Ground track
Ground track

The orbit data is extracted from the following two-line orbital elements,

1  3230U 68040B   20191.18566052  .00000030  00000-0  70793-5 0  9996
2  3230  74.0350 164.8166 0030317 181.8571 178.2504 14.90621060802079
Epoch (UTC): 09 July 2020 04:27:21
Eccentricity: 0.0030317
inclination: 74.0350°
perigee height: 575 km
apogee height: 617 km
right ascension of ascending node: 164.8166°
argument of perigee: 181.8571°
revolutions per day: 14.90621060
mean anomaly at epoch: 178.2504°
orbit number at epoch: 80207

The dashed part of the orbit path shows where the satellite is in the earth's shadow,  

DLR